• In Belarus
  • List of Countries
  • For 7 days
  • Water Temperature
  • Satellite Maps
  • Weather Map
  • Weather Widgets
  • user-avatar
    Login

    Hourly Weather Carmen

    Today, 20 March, Wednesday

    Time Temperature Precipitation Wind Pressure Humidity
    00:00 +22°C° 0 mm 4 mps 762 mmHg 94%
    01:00 +22°C° 1 mm 4 mps 762 mmHg 94%
    02:00 +22°C° 1 mm 4 mps 762 mmHg 95%
    03:00 +22°C° 1 mm 3 mps 761 mmHg 95%
    04:00 +22°C° 0.6 mm 3 mps 762 mmHg 95%
    05:00 +22°C° 0.6 mm 3 mps 762 mmHg 95%
    06:00 +22°C° 0 mm 4 mps 762 mmHg 95%
    07:00 +23°C° 0.4 mm 4 mps 762 mmHg 92%
    08:00 +25°C° 0.4 mm 4 mps 763 mmHg 90%
    09:00 +26°C° 0.4 mm 4 mps 763 mmHg 87%
    10:00 +27°C° 0 mm 4 mps 763 mmHg 77%
    11:00 +29°C° 0 mm 4 mps 763 mmHg 68%
    12:00 +30°C° 0 mm 4 mps 762 mmHg 58%
    13:00 +30°C° 0 mm 5 mps 762 mmHg 58%
    14:00 +30°C° 0 mm 5 mps 761 mmHg 59%
    15:00 +30°C° 0 mm 6 mps 760 mmHg 59%
    16:00 +29°C° 0 mm 6 mps 761 mmHg 64%
    17:00 +27°C° 0 mm 6 mps 761 mmHg 70%
    18:00 +26°C° 0 mm 6 mps 761 mmHg 75%
    19:00 +26°C° 0 mm 6 mps 761 mmHg 78%
    20:00 +26°C° 0 mm 6 mps 762 mmHg 82%
    21:00 +24°C° 0 mm 6 mps 762 mmHg 85%
    22:00 +24°C° 0.6 mm 6 mps 762 mmHg 86%
    23:00 +24°C° 0.6 mm 7 mps 762 mmHg 86%

    Tomorrow, 21 March, Thursday

    Time Temperature Precipitation Wind Pressure Humidity
    00:00 +24°C° 0.6 mm 7 mps 762 mmHg 87%
    01:00 +24°C° 1.1 mm 6 mps 762 mmHg 89%
    02:00 +23°C° 1.1 mm 6 mps 762 mmHg 91%
    03:00 +23°C° 1.1 mm 6 mps 762 mmHg 92%
    04:00 +23°C° 0.9 mm 6 mps 762 mmHg 93%
    05:00 +22°C° 0.9 mm 5 mps 762 mmHg 93%
    06:00 +22°C° 0.9 mm 5 mps 762 mmHg 93%
    07:00 +23°C° 0.4 mm 5 mps 763 mmHg 91%
    08:00 +23°C° 0.4 mm 4 mps 763 mmHg 88%
    09:00 +25°C° 0.4 mm 4 mps 764 mmHg 86%
    10:00 +27°C° 0.1 mm 5 mps 764 mmHg 77%
    11:00 +28°C° 0.1 mm 5 mps 763 mmHg 68%
    12:00 +30°C° 0.1 mm 5 mps 763 mmHg 59%
    13:00 +30°C° 0 mm 6 mps 762 mmHg 58%
    14:00 +30°C° 0 mm 7 mps 762 mmHg 57%
    15:00 +30°C° 0 mm 7 mps 761 mmHg 56%
    16:00 +29°C° 0 mm 7 mps 761 mmHg 61%
    17:00 +28°C° 0 mm 7 mps 761 mmHg 66%
    18:00 +26°C° 0 mm 6 mps 761 mmHg 71%
    19:00 +26°C° 0 mm 7 mps 762 mmHg 73%
    20:00 +26°C° 0 mm 7 mps 762 mmHg 75%
    21:00 +26°C° 0 mm 7 mps 763 mmHg 77%
    22:00 +26°C° 0 mm 7 mps 763 mmHg 79%
    23:00 +24°C° 0 mm 7 mps 763 mmHg 82%

    Day after tomorrow, 22 March, Friday

    Time Temperature Precipitation Wind Pressure Humidity
    00:00 +24°C° 0 mm 7 mps 763 mmHg 85%
    01:00 +23°C° 0.2 mm 7 mps 763 mmHg 86%
    02:00 +23°C° 0.2 mm 7 mps 762 mmHg 86%
    03:00 +22°C° 0.2 mm 6 mps 762 mmHg 87%
    04:00 +22°C° 0 mm 6 mps 762 mmHg 87%
    05:00 +22°C° 0 mm 6 mps 762 mmHg 87%
    06:00 +22°C° 0 mm 6 mps 763 mmHg 87%
    07:00 +24°C° 0 mm 6 mps 763 mmHg 82%
    08:00 +26°C° 0 mm 6 mps 764 mmHg 77%
    09:00 +27°C° 0 mm 6 mps 764 mmHg 71%
    10:00 +28°C° 0 mm 5 mps 764 mmHg 67%
    11:00 +30°C° 0 mm 4 mps 763 mmHg 62%
    12:00 +31°C° 0 mm 3 mps 763 mmHg 58%
    13:00 +32°C° 0 mm 4 mps 762 mmHg 57%
    14:00 +32°C° 0 mm 5 mps 761 mmHg 55%
    15:00 +33°C° 0 mm 5 mps 760 mmHg 54%
    16:00 +30°C° 0 mm 5 mps 760 mmHg 60%
    17:00 +29°C° 0 mm 6 mps 760 mmHg 65%
    18:00 +27°C° 0 mm 6 mps 760 mmHg 71%
    19:00 +27°C° 0 mm 6 mps 760 mmHg 72%
    20:00 +27°C° 0 mm 6 mps 761 mmHg 72%
    21:00 +26°C° 0 mm 6 mps 762 mmHg 72%
    22:00 +26°C° 0 mm 6 mps 762 mmHg 74%
    23:00 +26°C° 0 mm 6 mps 762 mmHg 76%

    23 March, Saturday

    Time Temperature Precipitation Wind Pressure Humidity
    00:00 +26°C° 0 mm 6 mps 762 mmHg 77%
    01:00 +26°C° 0 mm 6 mps 761 mmHg 77%
    02:00 +24°C° 0 mm 7 mps 761 mmHg 77%
    03:00 +24°C° 0 mm 7 mps 760 mmHg 77%
    04:00 +24°C° 0 mm 7 mps 760 mmHg 77%
    05:00 +24°C° 0 mm 7 mps 761 mmHg 78%
    06:00 +24°C° 0 mm 7 mps 761 mmHg 78%
    07:00 +26°C° 0 mm 7 mps 761 mmHg 74%
    08:00 +27°C° 0 mm 7 mps 762 mmHg 69%
    09:00 +28°C° 0 mm 7 mps 763 mmHg 64%
    10:00 +30°C° 0 mm 6 mps 762 mmHg 59%
    11:00 +32°C° 0 mm 5 mps 762 mmHg 54%
    12:00 +34°C° 0 mm 4 mps 761 mmHg 49%
    13:00 +34°C° 0 mm 4 mps 760 mmHg 47%
    14:00 +35°C° 0 mm 4 mps 759 mmHg 45%
    15:00 +35°C° 0 mm 3 mps 758 mmHg 44%
    16:00 +33°C° 0 mm 4 mps 759 mmHg 52%
    17:00 +30°C° 0 mm 5 mps 759 mmHg 61%
    18:00 +29°C° 0 mm 6 mps 759 mmHg 70%
    19:00 +28°C° 0 mm 6 mps 759 mmHg 72%
    20:00 +28°C° 0 mm 6 mps 760 mmHg 74%
    21:00 +27°C° 0 mm 6 mps 760 mmHg 76%
    22:00 +27°C° 0 mm 6 mps 761 mmHg 77%
    23:00 +27°C° 0 mm 5 mps 761 mmHg 78%

    24 March, Sunday

    Time Temperature Precipitation Wind Pressure Humidity
    00:00 +27°C° 0 mm 5 mps 761 mmHg 79%
    01:00 +27°C° 0 mm 6 mps 761 mmHg 74%
    02:00 +26°C° 0 mm 7 mps 760 mmHg 69%
    03:00 +26°C° 0 mm 7 mps 760 mmHg 65%
    04:00 +26°C° 0 mm 7 mps 760 mmHg 65%
    05:00 +24°C° 0 mm 7 mps 761 mmHg 66%
    06:00 +24°C° 0 mm 7 mps 761 mmHg 66%
    07:00 +26°C° 0 mm 7 mps 762 mmHg 62%
    08:00 +27°C° 0 mm 7 mps 762 mmHg 59%
    09:00 +29°C° 0 mm 6 mps 762 mmHg 55%
    10:00 +30°C° 0 mm 5 mps 762 mmHg 50%
    11:00 +33°C° 0 mm 4 mps 761 mmHg 45%
    12:00 +35°C° 0 mm 3 mps 761 mmHg 39%
    13:00 +35°C° 0 mm 3 mps 760 mmHg 38%
    14:00 +35°C° 0 mm 4 mps 759 mmHg 36%
    15:00 +36°C° 0 mm 4 mps 758 mmHg 35%
    16:00 +34°C° 0 mm 5 mps 758 mmHg 44%
    17:00 +32°C° 0 mm 5 mps 759 mmHg 53%
    18:00 +29°C° 0 mm 5 mps 759 mmHg 63%
    19:00 +28°C° 0 mm 6 mps 759 mmHg 67%
    20:00 +28°C° 0 mm 6 mps 760 mmHg 71%
    21:00 +27°C° 0 mm 6 mps 760 mmHg 75%
    22:00 +27°C° 0 mm 6 mps 760 mmHg 76%
    23:00 +27°C° 0 mm 6 mps 760 mmHg 78%

    25 March, Monday

    Time Temperature Precipitation Wind Pressure Humidity
    00:00 +27°C° 0 mm 6 mps 760 mmHg 79%
    01:00 +27°C° 0 mm 6 mps 760 mmHg 78%
    02:00 +26°C° 0 mm 6 mps 759 mmHg 77%
    03:00 +26°C° 0 mm 6 mps 759 mmHg 76%
    04:00 +24°C° 0 mm 6 mps 759 mmHg 74%
    05:00 +24°C° 0 mm 6 mps 760 mmHg 71%
    06:00 +23°C° 0 mm 6 mps 760 mmHg 68%
    07:00 +26°C° 0 mm 6 mps 760 mmHg 64%
    08:00 +27°C° 0 mm 6 mps 761 mmHg 60%
    09:00 +29°C° 0 mm 6 mps 761 mmHg 57%
    10:00 +32°C° 0 mm 5 mps 761 mmHg 50%
    11:00 +34°C° 0 mm 4 mps 760 mmHg 44%
    12:00 +36°C° 0 mm 3 mps 760 mmHg 38%
    13:00 +36°C° 0 mm 3 mps 759 mmHg 36%
    14:00 +37°C° 0 mm 3 mps 758 mmHg 33%
    15:00 +37°C° 0 mm 3 mps 758 mmHg 30%
    16:00 +35°C° 0 mm 4 mps 758 mmHg 40%
    17:00 +33°C° 0 mm 4 mps 758 mmHg 49%
    18:00 +30°C° 0 mm 5 mps 758 mmHg 58%
    19:00 +29°C° 0 mm 5 mps 759 mmHg 64%
    20:00 +28°C° 0 mm 5 mps 759 mmHg 70%
    21:00 +27°C° 0 mm 5 mps 760 mmHg 76%
    22:00 +27°C° 0 mm 6 mps 760 mmHg 77%
    23:00 +27°C° 0 mm 6 mps 760 mmHg 78%
    Show more